Location: Radomski Observatory
(40.2854°N, 79.5145°W)
Time: 17:23:15
(UTC-04:00)

Amateur Radio Satellites - All Passes

Search period start: 17 April 2014 16:53
Search period end: 18 April 2014 16:53
Location: Radomski Observatory, 40.2854°N, 79.5145°W

Satellite Date Start Highest point End Downlink Frequencies (MHz)
Time Altitude Azimuth
AO-7 17 Apr 16:56:50 17:05:08 87° 252° (WSW) 17:13:28 29.400 - 29.500 MHz
TMSAT-1 17 Apr 17:04:40 17:08:19 19° 268° (W) 17:12:00 436.925 FM
ISS 17 Apr 17:24:31 17:27:46 46° 328° (NNW) 17:31:01 145.800 FM
Uosat F 17 Apr 17:31:22 17:35:27 25° 265° (W) 17:39:33 435.120 FM
SO-50 17 Apr 17:37:25 17:41:29 33° 310° (NW) 17:45:35 436.795 FM
JAS-1B 17 Apr 18:25:26 18:29:31 14° 269° (W) 18:33:19 435.800 - 435.900 CW/SSB
Hamsat 17 Apr 18:27:10 18:31:13 51° 74° (ENE) 18:35:20 145.90 MHz
UOSAT-12 17 Apr 18:31:41 18:36:06 54° 118° (ESE) 18:40:38 437.025 FM, 437.400 FM
RS-15 17 Apr 18:33:56 18:43:37 38° 253° (WSW) 18:53:36 29.354 - 29.394 USB, Beacon 29.352 USB
JAS-2 17 Apr 18:45:49 18:50:56 32° 68° (ENE) 18:55:40 435.800 - 435.900 CW/SSB, 435.910 FM
AO-7 17 Apr 18:54:12 18:58:58 16° 270° (W) 19:03:45 29.400 - 29.500 MHz
ISS 17 Apr 19:03:12 19:05:10 15° 347° (NNW) 19:07:08 145.800 FM
STRAND 1 17 Apr 19:10:39 19:14:45 24° 95° (E) 19:18:50 ?
SO-67 17 Apr 19:41:16 19:44:43 66° 76° (ENE) 19:48:12 435.3500 MHz FM
HO-68 17 Apr 19:54:46 19:59:16 18° 55° (NE) 20:03:46 435.675 MHz FM
Hamsat 17 Apr 20:05:41 20:07:31 13° 270° (W) 20:09:22 145.90 MHz
UOSAT-12 17 Apr 20:13:08 20:16:35 21° 316° (NW) 20:20:05 437.025 FM, 437.400 FM
JAS-2 17 Apr 20:30:36 20:36:00 34° 262° (W) 20:40:56 435.800 - 435.900 CW/SSB, 435.910 FM
Saudisat 1A 17 Apr 20:35:26 20:39:40 42° 52° (NE) 20:43:49 436.775 MHz
ISS 17 Apr 20:41:23 20:43:02 13° 8° (N) 20:44:41 145.800 FM
STRAND 1 17 Apr 20:49:20 20:54:02 39° 291° (WNW) 20:58:43 ?
Oscar 11 17 Apr 21:32:31 21:36:06 26° 69° (ENE) 21:39:43 145.825 FM, Beacon 2401.500 USB
HO-68 17 Apr 21:38:52 21:46:01 90° 253° (WSW) 21:53:12 435.675 MHz FM
MaSat-1 17 Apr 22:04:56 22:07:35 27° 112° (ESE) 22:09:58 437.345 MHz
Saudisat 1A 17 Apr 22:15:48 22:18:57 20° 249° (WSW) 22:22:05 436.775 MHz
ISS 17 Apr 22:17:32 22:20:35 31° 28° (NNE) 22:23:38 145.800 FM
FUNcube-1 17 Apr 22:52:17 22:56:28 62° 75° (ENE) 23:00:36 145.950 - 145.970 MHz USB
Oscar 11 17 Apr 23:08:37 23:12:13 26° 265° (W) 23:15:51 145.825 FM, Beacon 2401.500 USB
HO-68 17 Apr 23:30:50 23:34:35 15° 271° (W) 23:38:21 435.675 MHz FM
ISS 17 Apr 23:54:17 23:57:20 33° 225° (SW) 00:00:22 145.800 FM
PCSat 18 Apr 00:26:35 00:30:17 19° 105° (ESE) 00:34:00 145.825 MHz
SO-50 18 Apr 00:28:58 00:32:48 25° 47° (NE) 00:36:41 436.795 FM
FUNcube-1 18 Apr 00:32:49 00:33:17 10° 270° (W) 00:33:44 145.950 - 145.970 MHz USB
Sapphire 18 Apr 01:22:50 01:28:06 57° 114° (ESE) 01:33:25 437.095 MHz 1200 baud AX-25 AFSK
Oscar 19 18 Apr 01:49:33 01:52:46 16° 91° (E) 01:55:59 437.125 CW, 437.150 USB
KITSAT 1 18 Apr 01:56:37 01:59:51 13° 98° (E) 02:03:05 435.175 FM
Oscar 16 18 Apr 01:56:59 02:00:52 21° 93° (E) 02:04:44 437.025 USB, Beacon 2401.1428
PCSat 18 Apr 02:07:53 02:13:12 58° 302° (WNW) 02:18:34 145.825 MHz
SO-50 18 Apr 02:09:08 02:13:31 42° 244° (WSW) 02:17:57 436.795 FM
OPAL 18 Apr 02:12:17 02:16:31 28° 64° (ENE) 02:20:48 ?
Uribyol 2 18 Apr 02:28:57 02:32:52 22° 94° (E) 02:36:47 436.500 FM
UOSAT-12 18 Apr 03:01:47 03:06:16 41° 52° (NE) 03:10:43 437.025 FM, 437.400 FM
AO-27 18 Apr 03:07:28 03:12:29 48° 100° (E) 03:17:28 436.795 MHz FM
Sapphire 18 Apr 03:07:39 03:11:53 23° 313° (NW) 03:16:10 437.095 MHz 1200 baud AX-25 AFSK
Oscar 10/S400 18 Apr 03:11:34 03:30:27 34° 135° (SE) 04:34:44 145.825 - 145.975 CW/USB, Beacon 145.810 USB
ITAMSAT 1 18 Apr 03:18:34 03:23:41 61° 101° (ESE) 03:28:47 435.822 SSB
Oscar 19 18 Apr 03:27:22 03:32:29 59° 287° (WNW) 03:37:34 437.125 CW, 437.150 USB
Oscar 16 18 Apr 03:35:28 03:40:25 46° 289° (WNW) 03:45:21 437.025 USB, Beacon 2401.1428
TMSAT-1 18 Apr 03:40:06 03:44:07 22° 93° (E) 03:48:08 436.925 FM
AO-Echo 18 Apr 03:43:01 03:47:51 86° 103° (ESE) 03:52:33 ?
KITSAT 1 18 Apr 03:45:47 03:53:50 74° 116° (ESE) 04:01:57 435.175 FM
OPAL 18 Apr 03:50:44 03:55:15 34° 261° (W) 03:59:52 ?
PCSat 18 Apr 03:56:23 03:57:50 11° 323° (NW) 03:59:17 145.825 MHz
Uosat F 18 Apr 04:02:41 04:04:06 11° 90° (E) 04:05:30 435.120 FM
Uribyol 2 18 Apr 04:07:38 04:12:32 44° 290° (WNW) 04:17:25 436.500 FM
JAS-1B 18 Apr 04:16:49 04:21:08 22° 94° (E) 04:25:34 435.800 - 435.900 CW/SSB
Gurwin Techsat 1B 18 Apr 04:29:41 04:35:02 89° 103° (ESE) 04:40:20 435.225 FM
UOSAT-12 18 Apr 04:42:29 04:46:11 23° 249° (WSW) 04:49:51 437.025 FM, 437.400 FM
AO-27 18 Apr 04:47:51 04:51:38 21° 296° (WNW) 04:55:25 436.795 MHz FM
ITAMSAT 1 18 Apr 04:59:25 05:02:40 17° 298° (WNW) 05:05:56 435.822 SSB
AO-7 18 Apr 04:59:30 05:06:48 33° 97° (E) 05:14:04 29.400 - 29.500 MHz
TMSAT-1 18 Apr 05:19:13 05:24:15 45° 289° (WNW) 05:29:15 436.925 FM
AO-Echo 18 Apr 05:24:55 05:25:51 11° 301° (WNW) 05:26:48 ?
Uosat F 18 Apr 05:38:26 05:43:27 78° 285° (WNW) 05:48:26 435.120 FM
KITSAT 1 18 Apr 05:43:06 05:49:59 30° 318° (NW) 05:56:55 435.175 FM
JAS-1B 18 Apr 06:06:44 06:12:07 44° 291° (WNW) 06:17:35 435.800 - 435.900 CW/SSB
Gurwin Techsat 1B 18 Apr 06:12:08 06:14:12 12° 301° (WNW) 06:16:16 435.225 FM
STRAND 1 18 Apr 06:26:02 06:30:36 34° 68° (ENE) 06:35:11 ?
RS-15 18 Apr 06:44:22 06:54:30 39° 108° (ESE) 07:04:18 29.354 - 29.394 USB, Beacon 29.352 USB
AO-7 18 Apr 06:51:50 06:59:51 55° 295° (WNW) 07:07:52 29.400 - 29.500 MHz
JAS-2 18 Apr 07:38:52 07:43:27 27° 96° (E) 07:48:22 435.800 - 435.900 CW/SSB, 435.910 FM
KITSAT 1 18 Apr 07:46:43 07:48:42 11° 346° (NNW) 07:50:42 435.175 FM
Hamsat 18 Apr 07:49:12 07:53:32 70° 284° (WNW) 07:57:52 145.90 MHz
STRAND 1 18 Apr 08:05:27 08:09:48 28° 264° (W) 08:14:10 ?
MaSat-1 18 Apr 08:06:12 08:09:10 82° 245° (WSW) 08:12:41 437.345 MHz
SO-67 18 Apr 08:39:21 08:42:52 90° 283° (WNW) 08:46:22 435.3500 MHz FM
AO-7 18 Apr 08:47:56 08:50:48 12° 316° (NW) 08:53:41 29.400 - 29.500 MHz
RS-15 18 Apr 08:55:14 09:06:21 61° 309° (NW) 09:17:13 29.354 - 29.394 USB, Beacon 29.352 USB
AO-40 18 Apr 09:07:47 10:25:02 19° 230° (SW) 12:47:15 Beacon 2401.320
HO-68 18 Apr 09:08:59 09:13:24 17° 91° (E) 09:17:48 435.675 MHz FM
PCSat 18 Apr 09:14:04 09:17:37 17° 44° (NE) 09:21:10 145.825 MHz
JAS-2 18 Apr 09:23:44 09:28:36 37° 290° (WNW) 09:33:53 435.800 - 435.900 CW/SSB, 435.910 FM
KITSAT 1 18 Apr 09:45:52 09:48:47 12° 18° (NNE) 09:51:40 435.175 FM
Sapphire 18 Apr 10:11:23 10:16:31 41° 54° (NE) 10:21:36 437.095 MHz 1200 baud AX-25 AFSK
PANSAT 18 Apr 10:42:36 10:44:26 13° 173° (S) 10:46:15 not established
FUNcube-1 18 Apr 10:43:51 10:45:38 12° 91° (E) 10:47:25 145.950 - 145.970 MHz USB
Saudisat 1A 18 Apr 10:44:13 10:46:01 12° 108° (ESE) 10:47:49 436.775 MHz
HO-68 18 Apr 10:54:38 11:01:51 83° 288° (WNW) 11:09:02 435.675 MHz FM
Oscar 11 18 Apr 10:55:57 11:00:15 57° 100° (E) 11:04:32 145.825 FM, Beacon 2401.500 USB
PCSat 18 Apr 10:56:16 11:01:43 82° 243° (WSW) 11:07:07 145.825 MHz
RS-15 18 Apr 11:13:22 11:21:38 23° 338° (NNW) 11:29:50 29.354 - 29.394 USB, Beacon 29.352 USB
KITSAT 1 18 Apr 11:39:53 11:47:10 35° 46° (NE) 11:54:22 435.175 FM
Sapphire 18 Apr 11:55:12 11:59:43 28° 252° (WSW) 12:04:13 437.095 MHz 1200 baud AX-25 AFSK
FUNcube-1 18 Apr 12:18:12 12:22:21 54° 286° (WNW) 12:26:34 145.950 - 145.970 MHz USB
Saudisat 1A 18 Apr 12:20:36 12:25:02 68° 304° (NW) 12:29:31 436.775 MHz
PANSAT 18 Apr 12:22:01 12:23:55 13° 186° (S) 12:25:50 not established
Oscar 11 18 Apr 12:33:50 12:35:58 14° 296° (WNW) 12:38:06 145.825 FM, Beacon 2401.500 USB
HO-68 18 Apr 12:44:20 12:48:29 17° 306° (NW) 12:52:38 435.675 MHz FM
ITAMSAT 1 18 Apr 13:01:02 13:02:35 11° 58° (ENE) 13:04:08 435.822 SSB
Oscar 19 18 Apr 13:05:51 13:09:51 23° 65° (ENE) 13:13:52 437.125 CW, 437.150 USB
Oscar 16 18 Apr 13:13:26 13:17:49 29° 67° (ENE) 13:22:14 437.025 USB, Beacon 2401.1428
AO-Echo 18 Apr 13:19:33 13:22:03 14° 61° (ENE) 13:24:32 ?
RS-15 18 Apr 13:31:55 13:39:35 21° 15° (NNE) 13:47:15 29.354 - 29.394 USB, Beacon 29.352 USB
KITSAT 1 18 Apr 13:35:04 13:42:59 60° 246° (WSW) 13:50:51 435.175 FM
Uribyol 2 18 Apr 13:46:17 13:50:48 32° 67° (ENE) 13:55:19 436.500 FM
Saudisat 1A 18 Apr 14:04:15 14:05:29 11° 323° (NW) 14:06:44 436.775 MHz
Gurwin Techsat 1B 18 Apr 14:12:51 14:16:14 17° 62° (ENE) 14:19:37 435.225 FM
AO-27 18 Apr 14:25:05 14:30:15 71° 74° (ENE) 14:35:25 436.795 MHz FM
ITAMSAT 1 18 Apr 14:36:05 14:41:17 87° 76° (ENE) 14:46:29 435.822 SSB
Oscar 19 18 Apr 14:44:05 14:48:55 42° 262° (W) 14:53:49 437.125 CW, 437.150 USB
Oscar 16 18 Apr 14:52:29 14:57:04 33° 263° (W) 15:01:42 437.025 USB, Beacon 2401.1428
AO-Echo 18 Apr 14:54:54 15:00:11 79° 257° (WSW) 15:05:21 ?
TMSAT-1 18 Apr 15:00:15 15:04:55 33° 68° (ENE) 15:09:36 436.925 FM
JAS-1B 18 Apr 15:01:00 15:07:12 26° 64° (ENE) 15:12:39 435.800 - 435.900 CW/SSB
ISS 18 Apr 15:02:00 15:03:08 11° 128° (SE) 15:04:15 145.800 FM
Uosat F 18 Apr 15:14:47 15:17:55 17° 62° (ENE) 15:21:03 435.120 FM
Uribyol 2 18 Apr 15:25:42 15:30:13 31° 264° (W) 15:34:46 436.500 FM
RS-15 18 Apr 15:44:59 15:55:32 49° 47° (NE) 16:06:14 29.354 - 29.394 USB, Beacon 29.352 USB
Gurwin Techsat 1B 18 Apr 15:50:25 15:55:40 63° 259° (WSW) 16:00:57 435.225 FM
AO-7 18 Apr 15:57:54 16:05:33 44° 62° (ENE) 16:13:13 29.400 - 29.500 MHz
OPAL 18 Apr 16:00:22 16:05:34 64° 104° (ESE) 16:10:44 ?
AO-27 18 Apr 16:07:48 16:10:15 13° 270° (W) 16:12:43 436.795 MHz FM
ITAMSAT 1 18 Apr 16:20:48 16:21:25 10° 271° (W) 16:22:01 435.822 SSB
SO-50 18 Apr 16:23:24 16:27:51 72° 120° (ESE) 16:32:21 436.795 FM
ISS 18 Apr 16:36:05 16:39:25 77° 324° (NW) 16:42:47 145.800 FM
TMSAT-1 18 Apr 16:40:10 16:44:48 31° 264° (W) 16:49:27 436.925 FM
